KD9BEW Weather Reports


Display with metric or nautical units.
time (UTC)temp
F
wind
direction
speed
MPH
gust
MPH
rain 1hr
in
rain 24hr
in
rain mn
in
humidity
%
barometer
mb
20260902091603 65 0 0.0 0.0 0.00 0.00 0.00 81 1013.6
20260902090058 65 0 0.0 0.0 0.00 0.00 0.00 80 1013.3
20260902084606 66 0 0.0 0.0 0.00 0.00 0.00 79 1013.3
20260902083103 66 0 0.0 0.0 0.00 0.00 0.00 78 1013.3
20260902081602 66 0 0.0 0.0 0.00 0.00 0.00 79 1013.3
20260902080117 66 0 0.0 0.0 0.00 0.00 0.00 78 1013.3
20260902074604 66 0 0.0 0.0 0.00 0.00 0.00 78 1013.2
20260902073100 66 0 0.0 0.0 0.00 0.00 0.00 77 1013.5
20260902071604 67 0 0.0 0.0 0.00 0.00 0.00 77 1013.8
20260902070108 67 0 0.0 0.0 0.00 0.00 0.00 76 1013.6
20260902064612 67 0 0.0 0.0 0.00 0.00 0.00 75 1013.2
20260902063106 67 0 0.0 0.0 0.00 0.00 0.00 74 1013.4
20260902061604 68 0 0.0 0.0 0.00 0.00 0.00 73 1013.6
20260902060125 68 0 0.0 1.0 0.00 0.00 0.00 72 1013.7
20260902054603 68 0 0.0 1.0 0.00 0.00 0.00 71 1013.7
20260902053124 69 165 0.0 1.0 0.00 0.00 0.00 69 1013.5
20260902051605 69 0 0.0 2.0 0.00 0.00 0.00 68 1013.8
20260902050109 69 155 0.0 3.0 0.00 0.00 0.00 68 1013.9
20260902044604 69 141 1.0 4.0 0.00 0.00 0.00 67 1013.9
20260902043101 69 173 0.0 2.0 0.00 0.00 0.00 68 1014.0
20260902041605 68 200 1.0 3.0 0.00 0.00 0.00 68 1013.9
20260902040107 68 150 1.0 4.0 0.00 0.00 0.00 67 1013.7
20260902034607 68 145 1.0 3.0 0.00 0.00 0.00 66 1013.7
20260902033109 68 161 0.0 1.0 0.00 0.00 0.00 66 1013.7
20260902031609 69 0 0.0 1.0 0.00 0.00 0.00 64 1013.4
20260902024612 69 155 0.0 2.0 0.00 0.00 0.00 64 1013.5
20260902023106 70 138 0.0 1.0 0.00 0.00 0.00 62 1013.4
20260902021615 71 142 0.0 3.0 0.00 0.00 0.00 61 1013.5
20260902014603 73 118 0.0 3.0 0.00 0.00 0.00 55 1013.1
20260902013109 72 252 1.0 5.0 0.00 0.00 0.00 56 1012.9
20260902011600 73 0 0.0 1.0 0.00 0.00 0.00 56 1012.9
20260902010108 75 0 0.0 3.0 0.00 0.00 0.00 53 1012.7
20260902004602 77 221 1.0 5.0 0.00 0.00 0.00 49 1012.7
20260902003103 78 150 0.0 5.0 0.00 0.00 0.00 46 1012.4
20260902001602 78 142 1.0 5.0 0.00 0.00 0.00 45 1012.6
20260902000101 79 145 0.0 5.0 0.00 0.00 0.00 45 1012.6
20260901234602 81 164 3.0 8.0 0.00 0.00 0.00 44 1012.5
20260901233100 81 202 2.0 6.0 0.00 0.00 0.00 44 1012.3
20260901231604 82 183 3.0 9.0 0.00 0.00 0.00 44 1012.3
20260901224559 84 299 3.0 7.0 0.00 0.00 0.00 43 1012.3
20260901223057 85 256 2.0 6.0 0.00 0.00 0.00 42 1012.2
20260901221608 85 137 2.0 8.0 0.00 0.00 0.00 44 1012.2
20260901220108 85 157 2.0 8.0 0.00 0.00 0.00 43 1012.2
20260901214559 84 248 2.0 7.0 0.00 0.00 0.00 43 1012.2
20260901213102 84 140 2.0 7.0 0.00 0.00 0.00 41 1012.2
20260901211603 85 164 2.0 7.0 0.00 0.00 0.00 40 1012.0
20260901204602 86 149 3.0 10.0 0.00 0.00 0.00 39 1011.9
20260901203104 86 221 3.0 9.0 0.00 0.00 0.00 38 1011.9
20260901201606 87 193 4.0 12.0 0.00 0.00 0.00 38 1012.0
20260901200110 88 271 3.0 10.0 0.00 0.00 0.00 37 1012.0
20260901194606 88 254 3.0 12.0 0.00 0.00 0.00 36 1012.2
20260901193111 89 210 3.0 14.0 0.00 0.00 0.00 35 1012.4
20260901191607 88 286 4.0 12.0 0.00 0.00 0.00 36 1012.3
20260901190116 89 102 2.0 11.0 0.00 0.00 0.00 35 1012.5
20260901184600 88 257 4.0 14.0 0.00 0.00 0.00 36 1012.6
20260901183106 89 198 2.0 9.0 0.00 0.00 0.00 36 1012.7
20260901181603 87 213 2.0 7.0 0.00 0.00 0.00 37 1012.9
20260901180105 87 185 4.0 14.0 0.00 0.00 0.00 39 1013.0
20260901174603 87 205 1.0 8.0 0.00 0.00 0.00 41 1013.2
20260901173104 86 140 3.0 9.0 0.00 0.00 0.00 43 1013.4
20260901171604 85 274 2.0 9.0 0.00 0.00 0.00 42 1013.5
20260901170106 85 248 3.0 10.0 0.00 0.00 0.00 45 1013.6
20260901164602 84 276 2.0 7.0 0.00 0.00 0.00 46 1013.7
20260901163104 83 236 1.0 5.0 0.00 0.00 0.00 49 1013.9
20260901161600 81 283 2.0 4.0 0.00 0.00 0.00 51 1014.0
20260901160115 81 167 0.0 6.0 0.00 0.00 0.00 53 1014.0
20260901154603 80 133 2.0 4.0 0.00 0.00 0.00 52 1014.3
20260901153105 79 272 1.0 4.0 0.00 0.00 0.00 54 1014.2
20260901151609 78 166 2.0 5.0 0.00 0.00 0.00 59 1014.2
20260901150103 75 0 2.0 7.0 0.00 0.00 0.00 66 1014.4
20260901144603 74 144 1.0 5.0 0.00 0.00 0.00 68 1014.4
20260901143112 73 175 2.0 6.0 0.00 0.00 0.00 70 1014.0
20260901141605 73 136 2.0 5.0 0.00 0.00 0.00 72 1014.0
20260901140110 72 188 2.0 5.0 0.00 0.00 0.00 72 1014.1
20260901134602 71 0 1.0 5.0 0.00 0.00 0.00 75 1014.2
20260901133105 69 0 0.0 1.0 0.00 0.00 0.00 78 1014.2
20260901131603 68 0 0.0 1.0 0.00 0.00 0.00 79 1014.3
20260901124601 65 0 0.0 1.0 0.00 0.00 0.00 82 1013.9
20260901123122 64 0 0.0 3.0 0.00 0.00 0.00 83 1013.8
20260901121610 64 0 0.0 1.0 0.00 0.00 0.00 83 1013.6
20260901114603 63 0 0.0 1.0 0.00 0.00 0.00 85 1013.2
20260901113111 63 0 0.0 1.0 0.00 0.00 0.00 86 1013.0
20260901111608 63 0 0.0 2.0 0.00 0.00 0.00 86 1012.9
20260901110115 64 0 0.0 1.0 0.00 0.00 0.00 86 1012.8
20260901104606 64 0 0.0 1.0 0.00 0.00 0.00 86 1012.6
20260901103111 63 0 0.0 3.0 0.00 0.00 0.00 87 1012.8
20260901101559 64 214 0.0 5.0 0.00 0.00 0.00 87 1012.9
20260901100113 64 0 0.0 3.0 0.00 0.00 0.00 87 1012.9
20260901094602 64 0 1.0 4.0 0.00 0.00 0.00 87 1012.8
20260901093110 64 200 0.0 4.0 0.00 0.00 0.00 88 1012.8